TA1PB-13 Weather Reports


time (UTC)temp
C
wind
direction
speed
KPH
gust
KPH
rain 1hr
cm
rain 24hr
cm
rain mn
cm
humidity
%
barometer
mb
20260906065203 27 347 14.5 0.0 0.00 0.00 0.00 29 1017.0
20260906065002 27 347 14.5 0.0 0.00 0.00 0.00 29 1017.0
20260906064802 27 347 14.5 0.0 0.00 0.00 0.00 29 1017.0
20260906064602 27 347 14.5 0.0 0.00 0.00 0.00 29 1017.0
20260906064402 27 347 14.5 0.0 0.00 0.00 0.00 29 1017.0
20260906064202 27 347 14.5 0.0 0.00 0.00 0.00 29 1017.0
20260906064002 27 347 14.5 0.0 0.00 0.00 0.00 29 1017.0
20260906063803 27 347 14.5 0.0 0.00 0.00 0.00 29 1017.0
20260906063603 24 308 8.0 0.0 0.00 0.00 0.00 37 1017.0
20260906063403 27 347 14.5 0.0 0.00 0.00 0.00 32 1017.0
20260906063202 27 347 14.5 0.0 0.00 0.00 0.00 32 1017.0
20260906063002 24 308 8.0 0.0 0.00 0.00 0.00 37 1017.0
20260906062802 25 308 8.0 0.0 0.00 0.00 0.00 37 1017.0
20260906062602 25 308 8.0 0.0 0.00 0.00 0.00 37 1017.0
20260906062402 25 308 8.0 0.0 0.00 0.00 0.00 37 1017.0
20260906062202 25 308 8.0 0.0 0.00 0.00 0.00 37 1017.0
20260906062003 25 308 8.0 0.0 0.00 0.00 0.00 37 1017.0
20260906061802 25 308 8.0 0.0 0.00 0.00 0.00 37 1017.0
20260906061603 23 308 8.0 0.0 0.00 0.00 0.00 37 1017.0
20260906061403 23 308 8.0 0.0 0.00 0.00 0.00 37 1017.0
20260906061202 23 308 8.0 0.0 0.00 0.00 0.00 37 1017.0
20260906061002 23 308 8.0 0.0 0.00 0.00 0.00 37 1017.0
20260906060802 23 308 8.0 0.0 0.00 0.00 0.00 37 1017.0
20260906060603 23 308 8.0 0.0 0.00 0.00 0.00 37 1017.0
20260906060403 23 308 8.0 0.0 0.00 0.00 0.00 37 1017.0
20260906060202 23 308 8.0 0.0 0.00 0.00 0.00 37 1017.0
20260906060002 24 308 8.0 0.0 0.00 0.00 0.00 37 1017.0
20260906055802 24 308 8.0 0.0 0.00 0.00 0.00 37 1017.0
20260906055602 24 308 8.0 0.0 0.00 0.00 0.00 37 1017.0
20260906055402 24 308 8.0 0.0 0.00 0.00 0.00 37 1017.0
20260906055202 24 308 8.0 0.0 0.00 0.00 0.00 37 1017.0
20260906055002 23 308 8.0 0.0 0.00 0.00 0.00 39 1017.0
20260906054803 23 308 8.0 0.0 0.00 0.00 0.00 39 1017.0
20260906054603 23 308 8.0 0.0 0.00 0.00 0.00 39 1017.0
20260906054402 23 308 8.0 0.0 0.00 0.00 0.00 39 1017.0
20260906054202 23 308 8.0 0.0 0.00 0.00 0.00 39 1017.0
20260906054002 23 308 8.0 0.0 0.00 0.00 0.00 39 1017.0
20260906053802 23 308 8.0 0.0 0.00 0.00 0.00 39 1017.0
20260906053602 23 308 8.0 0.0 0.00 0.00 0.00 39 1017.0
20260906053402 23 308 8.0 0.0 0.00 0.00 0.00 39 1017.0
20260906053203 20 301 1.6 0.0 0.00 0.00 0.00 49 1017.0
20260906053002 20 301 1.6 0.0 0.00 0.00 0.00 49 1017.0
20260906052802 20 301 1.6 0.0 0.00 0.00 0.00 49 1017.0
20260906052602 20 301 1.6 0.0 0.00 0.00 0.00 49 1017.0
20260906052402 20 301 1.6 0.0 0.00 0.00 0.00 49 1017.0
20260906052202 20 301 1.6 0.0 0.00 0.00 0.00 49 1017.0
20260906052002 20 301 3.2 0.0 0.00 0.00 0.00 49 1017.0
20260906051802 20 301 3.2 0.0 0.00 0.00 0.00 49 1017.0
20260906051603 20 301 3.2 0.0 0.00 0.00 0.00 49 1017.0
20260906051403 20 301 3.2 0.0 0.00 0.00 0.00 49 1017.0
20260906051202 20 301 3.2 0.0 0.00 0.00 0.00 48 1017.0
20260906051002 20 301 3.2 0.0 0.00 0.00 0.00 48 1017.0
20260906050802 20 301 3.2 0.0 0.00 0.00 0.00 48 1017.0
20260906050602 20 301 3.2 0.0 0.00 0.00 0.00 48 1017.0
20260906050402 20 301 3.2 0.0 0.00 0.00 0.00 48 1017.0
20260906050202 20 301 3.2 0.0 0.00 0.00 0.00 48 1017.0
20260906050003 20 301 3.2 0.0 0.00 0.00 0.00 48 1017.0
20260906045803 20 301 3.2 0.0 0.00 0.00 0.00 48 1017.0
20260906045603 20 301 3.2 0.0 0.00 0.00 0.00 48 1017.0
20260906045402 20 301 3.2 0.0 0.00 0.00 0.00 48 1017.0
20260906045202 20 301 3.2 0.0 0.00 0.00 0.00 48 1017.0
20260906045002 20 301 3.2 0.0 0.00 0.00 0.00 48 1017.0
20260906044802 20 301 3.2 0.0 0.00 0.00 0.00 48 1017.0
20260906044602 20 301 3.2 0.0 0.00 0.00 0.00 48 1017.0
20260906044403 20 301 3.2 0.0 0.00 0.00 0.00 48 1017.0
20260906044203 20 301 3.2 0.0 0.00 0.00 0.00 48 1017.0
20260906044003 20 301 3.2 0.0 0.00 0.00 0.00 48 1017.0
20260906043803 20 301 3.2 0.0 0.00 0.00 0.00 48 1017.0
20260906043602 17 334 1.6 0.0 0.00 0.00 0.00 56 1016.0
20260906043402 17 334 1.6 0.0 0.00 0.00 0.00 56 1016.0
20260906043202 17 334 1.6 0.0 0.00 0.00 0.00 56 1016.0
20260906043002 17 334 1.6 0.0 0.00 0.00 0.00 56 1016.0
20260906042802 17 334 1.6 0.0 0.00 0.00 0.00 56 1016.0
20260906042603 17 334 1.6 0.0 0.00 0.00 0.00 56 1016.0
20260906042403 18 334 3.2 0.0 0.00 0.00 0.00 56 1016.0
20260906042202 18 334 3.2 0.0 0.00 0.00 0.00 56 1016.0
20260906042002 18 334 3.2 0.0 0.00 0.00 0.00 56 1016.0
20260906041802 17 334 1.6 0.0 0.00 0.00 0.00 53 1016.0
20260906041602 17 334 1.6 0.0 0.00 0.00 0.00 53 1016.0
20260906041402 17 334 1.6 0.0 0.00 0.00 0.00 53 1016.0
20260906041202 17 334 1.6 0.0 0.00 0.00 0.00 53 1016.0
20260906041003 17 334 1.6 0.0 0.00 0.00 0.00 53 1016.0
20260906040802 17 334 1.6 0.0 0.00 0.00 0.00 53 1016.0
20260906040602 18 334 3.2 0.0 0.00 0.00 0.00 53 1017.0
20260906040402 18 334 3.2 0.0 0.00 0.00 0.00 53 1017.0
20260906040202 18 334 3.2 0.0 0.00 0.00 0.00 53 1017.0
20260906040002 18 334 3.2 0.0 0.00 0.00 0.00 53 1017.0
20260906035802 18 334 3.2 0.0 0.00 0.00 0.00 53 1017.0
20260906035602 17 334 1.6 0.0 0.00 0.00 0.00 53 1017.0
20260906035403 17 334 1.6 0.0 0.00 0.00 0.00 53 1017.0
20260906035203 17 334 1.6 0.0 0.00 0.00 0.00 53 1017.0
20260906035003 17 334 1.6 0.0 0.00 0.00 0.00 53 1017.0
20260906034802 17 334 1.6 0.0 0.00 0.00 0.00 53 1017.0
20260906034602 17 334 1.6 0.0 0.00 0.00 0.00 53 1017.0
20260906034402 18 334 3.2 0.0 0.00 0.00 0.00 53 1017.0
20260906034202 18 334 3.2 0.0 0.00 0.00 0.00 53 1017.0
20260906034002 18 334 3.2 0.0 0.00 0.00 0.00 53 1017.0
20260906033803 18 334 3.2 0.0 0.00 0.00 0.00 53 1017.0
20260906033602 18 334 3.2 0.0 0.00 0.00 0.00 53 1017.0
20260906033403 18 334 3.2 0.0 0.00 0.00 0.00 53 1017.0
20260906033202 17 337 3.2 0.0 0.00 0.00 0.00 53 1016.0
20260906033002 17 337 3.2 0.0 0.00 0.00 0.00 53 1016.0
20260906032802 17 337 3.2 0.0 0.00 0.00 0.00 53 1016.0
20260906032602 17 337 3.2 0.0 0.00 0.00 0.00 53 1016.0
20260906032402 17 337 3.2 0.0 0.00 0.00 0.00 53 1016.0
20260906032203 17 337 3.2 0.0 0.00 0.00 0.00 53 1016.0
20260906032002 17 337 3.2 0.0 0.00 0.00 0.00 53 1016.0
20260906031802 17 337 3.2 0.0 0.00 0.00 0.00 53 1016.0
20260906031602 17 337 3.2 0.0 0.00 0.00 0.00 53 1016.0
20260906031403 17 337 3.2 0.0 0.00 0.00 0.00 53 1016.0
20260906031202 17 337 3.2 0.0 0.00 0.00 0.00 52 1016.0
20260906031003 17 337 3.2 0.0 0.00 0.00 0.00 52 1016.0
20260906030802 17 337 3.2 0.0 0.00 0.00 0.00 52 1016.0
20260906030602 17 337 3.2 0.0 0.00 0.00 0.00 52 1016.0
20260906030403 17 337 3.2 0.0 0.00 0.00 0.00 52 1016.0
20260906030202 17 337 3.2 0.0 0.00 0.00 0.00 52 1016.0
20260906030002 17 337 3.2 0.0 0.00 0.00 0.00 52 1016.0
20260906025802 17 337 3.2 0.0 0.00 0.00 0.00 52 1016.0
20260906025602 17 337 3.2 0.0 0.00 0.00 0.00 52 1016.0
20260906025402 17 337 3.2 0.0 0.00 0.00 0.00 52 1016.0
20260906025202 17 337 3.2 0.0 0.00 0.00 0.00 52 1016.0
20260906025003 17 337 3.2 0.0 0.00 0.00 0.00 52 1016.0
20260906024802 17 337 3.2 0.0 0.00 0.00 0.00 52 1016.0
20260906024602 17 337 3.2 0.0 0.00 0.00 0.00 52 1016.0
20260906024402 17 337 3.2 0.0 0.00 0.00 0.00 52 1016.0
20260906024202 17 33 1.6 0.0 0.00 0.00 0.00 53 1016.0
20260906024002 17 33 1.6 0.0 0.00 0.00 0.00 53 1016.0
20260906023802 17 33 1.6 0.0 0.00 0.00 0.00 53 1016.0
20260906023603 17 337 3.2 0.0 0.00 0.00 0.00 52 1016.0
20260906023403 17 33 1.6 0.0 0.00 0.00 0.00 53 1016.0
20260906023202 17 33 1.6 0.0 0.00 0.00 0.00 53 1016.0
20260906023002 18 33 3.2 0.0 0.00 0.00 0.00 53 1016.0
20260906022802 18 33 3.2 0.0 0.00 0.00 0.00 53 1016.0
20260906022602 18 33 3.2 0.0 0.00 0.00 0.00 53 1016.0
20260906022402 18 33 3.2 0.0 0.00 0.00 0.00 53 1016.0
20260906022202 18 33 3.2 0.0 0.00 0.00 0.00 53 1016.0
20260906022003 18 33 3.2 0.0 0.00 0.00 0.00 52 1016.0
20260906021803 18 33 3.2 0.0 0.00 0.00 0.00 52 1016.0
20260906021603 18 33 3.2 0.0 0.00 0.00 0.00 52 1016.0
20260906021402 18 33 3.2 0.0 0.00 0.00 0.00 52 1016.0
20260906021202 18 33 3.2 0.0 0.00 0.00 0.00 52 1016.0
20260906021002 18 33 3.2 0.0 0.00 0.00 0.00 52 1016.0
20260906020802 18 33 3.2 0.0 0.00 0.00 0.00 52 1016.0
20260906020602 18 33 3.2 0.0 0.00 0.00 0.00 51 1016.0
20260906020403 18 33 3.2 0.0 0.00 0.00 0.00 51 1016.0
20260906020203 18 33 3.2 0.0 0.00 0.00 0.00 51 1016.0
20260906020002 18 33 3.2 0.0 0.00 0.00 0.00 51 1016.0
20260906015803 18 33 3.2 0.0 0.00 0.00 0.00 51 1016.0
20260906015602 18 33 3.2 0.0 0.00 0.00 0.00 51 1016.0
20260906015402 18 33 3.2 0.0 0.00 0.00 0.00 51 1016.0
20260906015202 18 33 3.2 0.0 0.00 0.00 0.00 51 1016.0
20260906015002 18 33 3.2 0.0 0.00 0.00 0.00 51 1016.0
20260906014802 18 33 3.2 0.0 0.00 0.00 0.00 51 1016.0
20260906014603 18 33 3.2 0.0 0.00 0.00 0.00 51 1016.0
20260906014403 18 33 3.2 0.0 0.00 0.00 0.00 51 1016.0
20260906014202 18 33 3.2 0.0 0.00 0.00 0.00 50 1016.0
20260906014002 18 33 3.2 0.0 0.00 0.00 0.00 50 1016.0
20260906013802 18 33 3.2 0.0 0.00 0.00 0.00 50 1016.0
20260906013602 18 33 3.2 0.0 0.00 0.00 0.00 50 1016.0
20260906013402 18 33 3.2 0.0 0.00 0.00 0.00 50 1016.0
20260906013202 18 56 3.2 0.0 0.00 0.00 0.00 51 1016.0
20260906013003 18 56 3.2 0.0 0.00 0.00 0.00 51 1016.0
20260906012803 18 56 3.2 0.0 0.00 0.00 0.00 51 1016.0
20260906012602 18 56 3.2 0.0 0.00 0.00 0.00 51 1016.0
20260906012402 18 56 3.2 0.0 0.00 0.00 0.00 51 1016.0
20260906012202 18 56 3.2 0.0 0.00 0.00 0.00 51 1016.0
20260906012002 18 56 3.2 0.0 0.00 0.00 0.00 51 1016.0
20260906011802 18 56 3.2 0.0 0.00 0.00 0.00 51 1016.0
20260906011603 18 56 3.2 0.0 0.00 0.00 0.00 51 1016.0
20260906011402 18 56 3.2 0.0 0.00 0.00 0.00 51 1016.0
20260906011203 18 56 3.2 0.0 0.00 0.00 0.00 51 1016.0
20260906011002 18 56 3.2 0.0 0.00 0.00 0.00 51 1016.0
20260906010802 18 56 3.2 0.0 0.00 0.00 0.00 51 1016.0
20260906010602 18 56 3.2 0.0 0.00 0.00 0.00 49 1016.0
20260906010402 18 56 3.2 0.0 0.00 0.00 0.00 49 1016.0
20260906010202 18 56 3.2 0.0 0.00 0.00 0.00 49 1016.0
20260906010002 18 56 3.2 0.0 0.00 0.00 0.00 49 1016.0
20260906005803 18 56 3.2 0.0 0.00 0.00 0.00 49 1016.0
20260906005603 18 56 3.2 0.0 0.00 0.00 0.00 49 1016.0
20260906005402 18 56 3.2 0.0 0.00 0.00 0.00 49 1016.0
20260906005202 18 56 3.2 0.0 0.00 0.00 0.00 49 1016.0
20260906005002 18 56 3.2 0.0 0.00 0.00 0.00 49 1016.0
20260906004802 18 56 3.2 0.0 0.00 0.00 0.00 49 1016.0
20260906004602 18 56 3.2 0.0 0.00 0.00 0.00 49 1016.0
20260906004403 18 56 3.2 0.0 0.00 0.00 0.00 49 1016.0
20260906004203 18 56 3.2 0.0 0.00 0.00 0.00 49 1016.0
20260906004003 18 56 3.2 0.0 0.00 0.00 0.00 49 1016.0
20260906003802 18 56 3.2 0.0 0.00 0.00 0.00 49 1016.0
20260906003602 18 56 3.2 0.0 0.00 0.00 0.00 49 1016.0
20260906003402 18 56 3.2 0.0 0.00 0.00 0.00 49 1016.0
20260906003202 18 76 1.6 0.0 0.00 0.00 0.00 49 1016.0
20260906003002 18 76 1.6 0.0 0.00 0.00 0.00 49 1016.0
20260906002802 18 76 1.6 0.0 0.00 0.00 0.00 49 1016.0
20260906002603 18 76 1.6 0.0 0.00 0.00 0.00 49 1016.0
20260906002403 18 76 1.6 0.0 0.00 0.00 0.00 49 1016.0
20260906002202 18 76 1.6 0.0 0.00 0.00 0.00 49 1016.0
20260906002002 18 76 3.2 0.0 0.00 0.00 0.00 49 1016.0
20260906001802 18 76 3.2 0.0 0.00 0.00 0.00 49 1016.0
20260906001602 18 76 1.6 0.0 0.00 0.00 0.00 49 1016.0
20260906001402 18 76 1.6 0.0 0.00 0.00 0.00 49 1016.0
20260906001203 18 76 1.6 0.0 0.00 0.00 0.00 49 1016.0
20260906001002 18 76 3.2 0.0 0.00 0.00 0.00 49 1016.0
20260906000802 18 76 3.2 0.0 0.00 0.00 0.00 49 1016.0
20260906000602 18 76 3.2 0.0 0.00 0.00 0.00 49 1016.0
20260906000403 18 76 3.2 0.0 0.00 0.00 0.00 49 1016.0
20260906000204 18 76 1.6 0.0 0.00 0.00 0.00 48 1016.0
20260906000002 18 76 1.6 0.0 0.00 0.00 0.00 48 1016.0
20260905235802 18 76 1.6 0.0 0.00 0.00 0.00 48 1016.0
20260905235603 18 76 1.6 0.0 0.00 0.00 0.00 48 1016.0
20260905235402 18 76 1.6 0.0 0.00 0.00 0.00 48 1016.0
20260905235202 18 76 1.6 0.0 0.00 0.00 0.00 48 1016.0
20260905235003 18 76 3.2 0.0 0.00 0.00 0.00 48 1016.0
20260905234802 18 76 3.2 0.0 0.00 0.00 0.00 48 1016.0
20260905234602 18 94 1.6 0.0 0.00 0.00 0.00 48 1016.0
20260905234402 18 94 1.6 0.0 0.00 0.00 0.00 48 1016.0
20260905234202 18 94 1.6 0.0 0.00 0.00 0.00 48 1016.0
20260905234003 18 94 1.6 0.0 0.00 0.00 0.00 48 1016.0
20260905233803 18 94 1.6 0.0 0.00 0.00 0.00 48 1016.0
20260905233602 18 94 1.6 0.0 0.00 0.00 0.00 48 1016.0
20260905233402 18 94 1.6 0.0 0.00 0.00 0.00 48 1016.0
20260905233202 18 94 1.6 0.0 0.00 0.00 0.00 48 1016.0
20260905233002 18 94 1.6 0.0 0.00 0.00 0.00 48 1016.0
20260905232802 18 94 1.6 0.0 0.00 0.00 0.00 48 1016.0
20260905232602 18 94 1.6 0.0 0.00 0.00 0.00 48 1016.0
20260905232403 18 94 1.6 0.0 0.00 0.00 0.00 48 1016.0
20260905232203 19 94 3.2 0.0 0.00 0.00 0.00 48 1016.0
20260905232003 19 94 3.2 0.0 0.00 0.00 0.00 48 1016.0
20260905231802 20 94 4.8 0.0 0.00 0.00 0.00 48 1016.0
20260905231602 20 94 4.8 0.0 0.00 0.00 0.00 48 1016.0
20260905231402 20 94 4.8 0.0 0.00 0.00 0.00 48 1016.0
20260905231202 20 94 4.8 0.0 0.00 0.00 0.00 48 1016.0
20260905231003 18 94 1.6 0.0 0.00 0.00 0.00 47 1016.0
20260905230803 18 94 1.6 0.0 0.00 0.00 0.00 47 1016.0
20260905230603 18 94 1.6 0.0 0.00 0.00 0.00 47 1016.0
20260905230402 18 94 1.6 0.0 0.00 0.00 0.00 47 1016.0
20260905230202 18 94 1.6 0.0 0.00 0.00 0.00 47 1016.0
20260905230002 19 94 3.2 0.0 0.00 0.00 0.00 47 1016.0
20260905225802 19 94 3.2 0.0 0.00 0.00 0.00 47 1016.0
20260905225603 19 94 3.2 0.0 0.00 0.00 0.00 47 1016.0
20260905225403 19 94 3.2 0.0 0.00 0.00 0.00 47 1016.0
20260905225203 19 94 3.2 0.0 0.00 0.00 0.00 47 1016.0
20260905225002 19 94 3.2 0.0 0.00 0.00 0.00 47 1016.0
20260905224802 20 94 4.8 0.0 0.00 0.00 0.00 47 1016.0
20260905224602 19 92 6.4 0.0 0.00 0.00 0.00 48 1016.0
20260905224402 18 92 6.4 0.0 0.00 0.00 0.00 48 1016.0
20260905224202 18 92 6.4 0.0 0.00 0.00 0.00 48 1016.0
20260905224002 19 92 6.4 0.0 0.00 0.00 0.00 48 1016.0
20260905223803 19 92 6.4 0.0 0.00 0.00 0.00 48 1016.0
20260905223603 19 92 6.4 0.0 0.00 0.00 0.00 48 1016.0
20260905223403 20 92 6.4 0.0 0.00 0.00 0.00 48 1016.0
20260905223202 20 92 6.4 0.0 0.00 0.00 0.00 48 1016.0
20260905223002 20 92 6.4 0.0 0.00 0.00 0.00 48 1016.0
20260905222802 20 92 6.4 0.0 0.00 0.00 0.00 48 1016.0
20260905222602 20 92 6.4 0.0 0.00 0.00 0.00 48 1016.0
20260905222402 19 92 6.4 0.0 0.00 0.00 0.00 46 1017.0
20260905222203 19 92 6.4 0.0 0.00 0.00 0.00 46 1017.0
20260905222003 19 92 6.4 0.0 0.00 0.00 0.00 46 1017.0
20260905221803 19 92 6.4 0.0 0.00 0.00 0.00 46 1017.0
20260905221602 19 92 6.4 0.0 0.00 0.00 0.00 46 1017.0
20260905221402 20 92 6.4 0.0 0.00 0.00 0.00 46 1017.0
20260905221202 19 92 6.4 0.0 0.00 0.00 0.00 43 1017.0
20260905221002 19 92 6.4 0.0 0.00 0.00 0.00 43 1017.0
20260905220802 19 92 6.4 0.0 0.00 0.00 0.00 43 1017.0
20260905220603 19 92 6.4 0.0 0.00 0.00 0.00 43 1017.0
20260905220402 19 92 6.4 0.0 0.00 0.00 0.00 43 1017.0
20260905220202 20 92 6.4 0.0 0.00 0.00 0.00 43 1016.0
20260905220002 20 92 6.4 0.0 0.00 0.00 0.00 43 1016.0
20260905215802 20 92 6.4 0.0 0.00 0.00 0.00 43 1016.0
20260905215602 20 92 6.4 0.0 0.00 0.00 0.00 43 1016.0
20260905215402 20 92 6.4 0.0 0.00 0.00 0.00 43 1016.0
20260905215203 19 106 8.0 0.0 0.00 0.00 0.00 41 1016.0
20260905215003 19 106 8.0 0.0 0.00 0.00 0.00 41 1016.0
20260905214802 20 106 8.0 0.0 0.00 0.00 0.00 41 1016.0
20260905214602 20 106 8.0 0.0 0.00 0.00 0.00 41 1016.0
20260905214402 20 106 8.0 0.0 0.00 0.00 0.00 41 1016.0
20260905214202 20 106 8.0 0.0 0.00 0.00 0.00 41 1016.0
20260905214002 20 106 8.0 0.0 0.00 0.00 0.00 41 1016.0
20260905213802 20 106 8.0 0.0 0.00 0.00 0.00 41 1016.0
20260905213603 20 106 8.0 0.0 0.00 0.00 0.00 41 1016.0
20260905213402 20 106 8.0 0.0 0.00 0.00 0.00 41 1016.0
20260905213202 20 106 8.0 0.0 0.00 0.00 0.00 41 1016.0
20260905213002 20 106 8.0 0.0 0.00 0.00 0.00 41 1016.0
20260905212802 21 106 8.0 0.0 0.00 0.00 0.00 41 1016.0
20260905212602 21 106 8.0 0.0 0.00 0.00 0.00 41 1016.0
20260905212402 21 106 8.0 0.0 0.00 0.00 0.00 41 1016.0
20260905212202 21 106 8.0 0.0 0.00 0.00 0.00 41 1016.0
20260905212003 21 106 8.0 0.0 0.00 0.00 0.00 41 1016.0
20260905211802 21 106 8.0 0.0 0.00 0.00 0.00 41 1016.0
20260905211602 20 106 8.0 0.0 0.00 0.00 0.00 40 1016.0
20260905211402 20 106 8.0 0.0 0.00 0.00 0.00 40 1016.0
20260905211202 21 106 8.0 0.0 0.00 0.00 0.00 40 1016.0
20260905211002 21 106 8.0 0.0 0.00 0.00 0.00 40 1016.0
20260905210802 21 106 8.0 0.0 0.00 0.00 0.00 40 1016.0
20260905210603 21 106 8.0 0.0 0.00 0.00 0.00 40 1016.0
20260905210403 21 106 8.0 0.0 0.00 0.00 0.00 40 1016.0
20260905210203 21 106 8.0 0.0 0.00 0.00 0.00 40 1016.0
20260905210002 20 106 8.0 0.0 0.00 0.00 0.00 39 1016.0
20260905205802 20 106 8.0 0.0 0.00 0.00 0.00 39 1016.0
20260905205602 20 106 8.0 0.0 0.00 0.00 0.00 39 1016.0
20260905205402 20 106 8.0 0.0 0.00 0.00 0.00 39 1016.0
20260905205202 20 106 8.0 0.0 0.00 0.00 0.00 39 1016.0
20260905205003 20 106 8.0 0.0 0.00 0.00 0.00 39 1016.0
20260905204803 21 106 8.0 0.0 0.00 0.00 0.00 39 1016.0
20260905204603 21 106 8.0 0.0 0.00 0.00 0.00 39 1016.0
20260905204403 21 106 8.0 0.0 0.00 0.00 0.00 39 1016.0
20260905204202 21 106 8.0 0.0 0.00 0.00 0.00 39 1016.0
20260905204002 20 115 8.0 0.0 0.00 0.00 0.00 36 1016.0
20260905203802 21 115 8.0 0.0 0.00 0.00 0.00 36 1016.0
20260905203602 21 115 8.0 0.0 0.00 0.00 0.00 36 1016.0
20260905203403 21 115 8.0 0.0 0.00 0.00 0.00 36 1016.0
20260905203203 21 115 8.0 0.0 0.00 0.00 0.00 36 1016.0
20260905203002 21 115 9.7 0.0 0.00 0.00 0.00 36 1016.0
20260905202802 21 115 9.7 0.0 0.00 0.00 0.00 36 1016.0
20260905202602 21 115 9.7 0.0 0.00 0.00 0.00 36 1016.0
20260905202402 21 115 9.7 0.0 0.00 0.00 0.00 36 1016.0
20260905202202 21 115 9.7 0.0 0.00 0.00 0.00 36 1016.0
20260905202002 21 115 8.0 0.0 0.00 0.00 0.00 34 1016.0
20260905201802 21 115 8.0 0.0 0.00 0.00 0.00 34 1016.0
20260905201603 21 115 8.0 0.0 0.00 0.00 0.00 34 1016.0
20260905201403 21 115 8.0 0.0 0.00 0.00 0.00 34 1016.0
20260905201202 21 115 8.0 0.0 0.00 0.00 0.00 34 1016.0
20260905201002 21 115 8.0 0.0 0.00 0.00 0.00 34 1016.0
20260905200802 21 115 9.7 0.0 0.00 0.00 0.00 34 1016.0
20260905200602 21 115 8.0 0.0 0.00 0.00 0.00 34 1016.0
20260905200402 21 115 9.7 0.0 0.00 0.00 0.00 34 1016.0
20260905200203 21 115 9.7 0.0 0.00 0.00 0.00 34 1016.0
20260905200003 21 115 9.7 0.0 0.00 0.00 0.00 34 1016.0
20260905195803 21 115 9.7 0.0 0.00 0.00 0.00 34 1016.0
20260905195602 21 112 11.3 0.0 0.00 0.00 0.00 30 1016.0
20260905195402 21 112 11.3 0.0 0.00 0.00 0.00 30 1016.0
20260905195202 21 112 11.3 0.0 0.00 0.00 0.00 30 1016.0
20260905195002 21 112 11.3 0.0 0.00 0.00 0.00 30 1016.0
20260905194802 21 112 11.3 0.0 0.00 0.00 0.00 30 1016.0
20260905194603 21 112 11.3 0.0 0.00 0.00 0.00 30 1016.0
20260905194403 21 112 11.3 0.0 0.00 0.00 0.00 30 1016.0
20260905194202 21 112 11.3 0.0 0.00 0.00 0.00 30 1016.0
20260905194002 21 112 11.3 0.0 0.00 0.00 0.00 30 1016.0
20260905193802 22 112 11.3 0.0 0.00 0.00 0.00 30 1016.0
20260905193602 22 112 11.3 0.0 0.00 0.00 0.00 30 1016.0
20260905193402 22 112 11.3 0.0 0.00 0.00 0.00 30 1016.0
20260905193202 22 112 11.3 0.0 0.00 0.00 0.00 30 1016.0
20260905193003 22 112 11.3 0.0 0.00 0.00 0.00 30 1016.0
20260905192803 22 112 11.3 0.0 0.00 0.00 0.00 30 1016.0
20260905192603 22 112 11.3 0.0 0.00 0.00 0.00 30 1016.0
20260905192403 22 112 11.3 0.0 0.00 0.00 0.00 30 1016.0
20260905192202 22 112 11.3 0.0 0.00 0.00 0.00 30 1016.0
20260905192002 22 112 11.3 0.0 0.00 0.00 0.00 30 1016.0
20260905191802 22 112 11.3 0.0 0.00 0.00 0.00 30 1016.0
20260905191602 23 112 11.3 0.0 0.00 0.00 0.00 30 1016.0
20260905191403 23 112 11.3 0.0 0.00 0.00 0.00 30 1016.0
20260905191203 23 112 11.3 0.0 0.00 0.00 0.00 30 1016.0
20260905191003 23 112 11.3 0.0 0.00 0.00 0.00 30 1016.0
20260905190802 22 48 6.4 0.0 0.00 0.00 0.00 25 1016.0
20260905190603 22 48 6.4 0.0 0.00 0.00 0.00 25 1016.0
20260905190402 22 48 6.4 0.0 0.00 0.00 0.00 25 1016.0
20260905190202 22 48 6.4 0.0 0.00 0.00 0.00 25 1016.0
20260905190002 22 48 6.4 0.0 0.00 0.00 0.00 25 1016.0
20260905185803 22 48 6.4 0.0 0.00 0.00 0.00 25 1016.0
20260905185603 22 48 6.4 0.0 0.00 0.00 0.00 25 1016.0
20260905185402 22 48 6.4 0.0 0.00 0.00 0.00 25 1016.0
20260905185202 22 48 6.4 0.0 0.00 0.00 0.00 25 1016.0
20260905185002 22 48 6.4 0.0 0.00 0.00 0.00 25 1016.0
20260905184802 23 48 6.4 0.0 0.00 0.00 0.00 25 1016.0
20260905184602 23 48 6.4 0.0 0.00 0.00 0.00 25 1016.0
20260905184402 23 48 6.4 0.0 0.00 0.00 0.00 25 1016.0
20260905184203 23 48 6.4 0.0 0.00 0.00 0.00 25 1016.0
20260905184002 23 48 6.4 0.0 0.00 0.00 0.00 25 1016.0
20260905183802 23 48 6.4 0.0 0.00 0.00 0.00 25 1016.0
20260905183602 23 48 6.4 0.0 0.00 0.00 0.00 25 1015.0
20260905183402 23 48 6.4 0.0 0.00 0.00 0.00 25 1015.0
20260905183202 23 48 6.4 0.0 0.00 0.00 0.00 25 1015.0
20260905183002 23 48 6.4 0.0 0.00 0.00 0.00 25 1015.0
20260905182802 23 48 6.4 0.0 0.00 0.00 0.00 25 1015.0
20260905182603 24 48 6.4 0.0 0.00 0.00 0.00 25 1015.0
20260905182403 24 48 6.4 0.0 0.00 0.00 0.00 25 1015.0
20260905182202 24 48 6.4 0.0 0.00 0.00 0.00 25 1015.0
20260905182003 24 48 6.4 0.0 0.00 0.00 0.00 25 1015.0
20260905181802 24 48 6.4 0.0 0.00 0.00 0.00 25 1015.0
20260905181602 24 48 6.4 0.0 0.00 0.00 0.00 25 1015.0
20260905181402 25 48 6.4 0.0 0.00 0.00 0.00 25 1015.0
20260905181202 25 48 6.4 0.0 0.00 0.00 0.00 25 1015.0
20260905181003 25 48 6.4 0.0 0.00 0.00 0.00 25 1015.0
20260905180803 25 48 6.4 0.0 0.00 0.00 0.00 25 1015.0
20260905180602 25 48 6.4 0.0 0.00 0.00 0.00 25 1015.0
20260905180402 25 48 6.4 0.0 0.00 0.00 0.00 25 1015.0
20260905180202 25 48 6.4 0.0 0.00 0.00 0.00 25 1015.0
20260905180002 25 48 6.4 0.0 0.00 0.00 0.00 25 1015.0
20260905175802 25 48 6.4 0.0 0.00 0.00 0.00 25 1015.0
20260905175602 25 48 6.4 0.0 0.00 0.00 0.00 25 1015.0
20260905175403 25 48 6.4 0.0 0.00 0.00 0.00 25 1015.0
20260905175203 26 48 6.4 0.0 0.00 0.00 0.00 25 1015.0
20260905175002 26 48 6.4 0.0 0.00 0.00 0.00 25 1015.0
20260905174802 26 48 6.4 0.0 0.00 0.00 0.00 25 1015.0
20260905174602 26 48 6.4 0.0 0.00 0.00 0.00 25 1015.0
20260905174402 26 48 6.4 0.0 0.00 0.00 0.00 25 1015.0
20260905174202 26 48 6.4 0.0 0.00 0.00 0.00 25 1015.0
20260905174003 26 48 6.4 0.0 0.00 0.00 0.00 25 1015.0
20260905173803 27 48 6.4 0.0 0.00 0.00 0.00 25 1014.0
20260905173602 27 48 6.4 0.0 0.00 0.00 0.00 25 1014.0
20260905173402 27 48 6.4 0.0 0.00 0.00 0.00 25 1014.0
20260905173202 27 48 6.4 0.0 0.00 0.00 0.00 25 1014.0
20260905173002 27 48 6.4 0.0 0.00 0.00 0.00 25 1014.0
20260905172802 27 48 6.4 0.0 0.00 0.00 0.00 25 1014.0
20260905172602 26 353 8.0 0.0 0.00 0.00 0.00 23 1014.0
20260905172403 26 353 8.0 0.0 0.00 0.00 0.00 23 1014.0
20260905172203 26 353 8.0 0.0 0.00 0.00 0.00 23 1014.0
20260905172003 26 353 8.0 0.0 0.00 0.00 0.00 23 1014.0
20260905171802 26 353 8.0 0.0 0.00 0.00 0.00 23 1014.0
20260905171602 26 353 8.0 0.0 0.00 0.00 0.00 23 1014.0
20260905171402 26 353 8.0 0.0 0.00 0.00 0.00 23 1014.0
20260905171202 27 353 8.0 0.0 0.00 0.00 0.00 23 1014.0
20260905171002 27 353 8.0 0.0 0.00 0.00 0.00 23 1014.0
20260905170803 27 353 8.0 0.0 0.00 0.00 0.00 23 1014.0
20260905170602 27 353 8.0 0.0 0.00 0.00 0.00 23 1014.0
20260905170402 27 353 8.0 0.0 0.00 0.00 0.00 23 1014.0
20260905170202 27 353 8.0 0.0 0.00 0.00 0.00 23 1014.0
20260905170002 27 353 8.0 0.0 0.00 0.00 0.00 23 1014.0
20260905165802 27 353 8.0 0.0 0.00 0.00 0.00 23 1014.0
20260905165602 27 353 8.0 0.0 0.00 0.00 0.00 23 1014.0
20260905165402 28 353 8.0 0.0 0.00 0.00 0.00 23 1014.0
20260905165203 28 353 8.0 0.0 0.00 0.00 0.00 23 1014.0
20260905165003 28 353 8.0 0.0 0.00 0.00 0.00 23 1014.0
20260905164802 28 353 8.0 0.0 0.00 0.00 0.00 23 1014.0
20260905164602 28 353 8.0 0.0 0.00 0.00 0.00 23 1014.0
20260905164402 28 353 8.0 0.0 0.00 0.00 0.00 23 1014.0
20260905164202 28 353 8.0 0.0 0.00 0.00 0.00 23 1014.0
20260905164002 28 353 8.0 0.0 0.00 0.00 0.00 23 1014.0
20260905163803 29 353 8.0 0.0 0.00 0.00 0.00 23 1014.0
20260905163603 29 353 8.0 0.0 0.00 0.00 0.00 23 1014.0
20260905163402 29 353 8.0 0.0 0.00 0.00 0.00 23 1014.0
20260905163202 29 353 8.0 0.0 0.00 0.00 0.00 23 1014.0
20260905163002 29 353 8.0 0.0 0.00 0.00 0.00 23 1014.0
20260905162802 29 353 8.0 0.0 0.00 0.00 0.00 23 1014.0
20260905162602 29 353 8.0 0.0 0.00 0.00 0.00 23 1014.0
20260905162402 30 353 8.0 0.0 0.00 0.00 0.00 23 1014.0
20260905162203 30 353 8.0 0.0 0.00 0.00 0.00 23 1014.0
20260905162003 30 353 8.0 0.0 0.00 0.00 0.00 23 1014.0
20260905161802 30 353 8.0 0.0 0.00 0.00 0.00 23 1014.0
20260905161602 30 353 8.0 0.0 0.00 0.00 0.00 23 1014.0
20260905161402 29 10 8.0 0.0 0.00 0.00 0.00 22 1014.0
20260905161202 29 10 8.0 0.0 0.00 0.00 0.00 22 1014.0
20260905161002 29 10 8.0 0.0 0.00 0.00 0.00 22 1014.0
20260905160802 29 10 8.0 0.0 0.00 0.00 0.00 22 1014.0
20260905160603 29 10 8.0 0.0 0.00 0.00 0.00 22 1014.0
20260905160402 29 10 8.0 0.0 0.00 0.00 0.00 22 1014.0
20260905160202 30 10 8.0 0.0 0.00 0.00 0.00 22 1014.0
20260905160002 30 10 8.0 0.0 0.00 0.00 0.00 22 1014.0
20260905155802 30 10 8.0 0.0 0.00 0.00 0.00 22 1014.0
20260905155602 30 10 8.0 0.0 0.00 0.00 0.00 22 1014.0
20260905155403 30 10 8.0 0.0 0.00 0.00 0.00 22 1014.0
20260905155202 30 10 8.0 0.0 0.00 0.00 0.00 22 1014.0
20260905155003 30 10 8.0 0.0 0.00 0.00 0.00 22 1014.0
20260905154803 30 10 8.0 0.0 0.00 0.00 0.00 22 1014.0
20260905154602 31 10 8.0 0.0 0.00 0.00 0.00 22 1014.0
20260905154402 31 10 8.0 0.0 0.00 0.00 0.00 22 1014.0
20260905154202 31 10 8.0 0.0 0.00 0.00 0.00 22 1014.0
20260905154002 31 10 8.0 0.0 0.00 0.00 0.00 22 1014.0
20260905153802 31 10 8.0 0.0 0.00 0.00 0.00 22 1014.0
20260905153602 31 10 8.0 0.0 0.00 0.00 0.00 22 1014.0
20260905153403 31 10 8.0 0.0 0.00 0.00 0.00 22 1014.0
20260905153203 31 10 8.0 0.0 0.00 0.00 0.00 22 1014.0
20260905153002 31 10 8.0 0.0 0.00 0.00 0.00 22 1014.0
20260905152802 31 10 8.0 0.0 0.00 0.00 0.00 22 1014.0
20260905152602 31 10 8.0 0.0 0.00 0.00 0.00 22 1014.0
20260905152403 31 10 8.0 0.0 0.00 0.00 0.00 20 1014.0
20260905152202 31 10 8.0 0.0 0.00 0.00 0.00 20 1014.0
20260905152002 31 10 8.0 0.0 0.00 0.00 0.00 20 1014.0
20260905151804 31 10 8.0 0.0 0.00 0.00 0.00 20 1014.0
20260905151602 31 10 8.0 0.0 0.00 0.00 0.00 20 1014.0
20260905151402 31 10 8.0 0.0 0.00 0.00 0.00 20 1014.0
20260905151202 31 10 8.0 0.0 0.00 0.00 0.00 20 1014.0
20260905151002 31 10 8.0 0.0 0.00 0.00 0.00 20 1014.0
20260905150802 31 10 8.0 0.0 0.00 0.00 0.00 20 1014.0
20260905150602 31 10 8.0 0.0 0.00 0.00 0.00 20 1014.0
20260905150403 31 10 8.0 0.0 0.00 0.00 0.00 20 1014.0
20260905150203 32 10 8.0 0.0 0.00 0.00 0.00 20 1014.0
20260905150003 32 10 8.0 0.0 0.00 0.00 0.00 20 1014.0
20260905145802 32 10 8.0 0.0 0.00 0.00 0.00 20 1014.0
20260905145602 32 10 8.0 0.0 0.00 0.00 0.00 20 1014.0
20260905145402 31 10 8.0 0.0 0.00 0.00 0.00 20 1014.0
20260905145202 32 10 8.0 0.0 0.00 0.00 0.00 20 1014.0
20260905145002 31 16 6.4 0.0 0.00 0.00 0.00 22 1014.0
20260905144802 32 10 8.0 0.0 0.00 0.00 0.00 21 1014.0
20260905144603 31 16 6.4 0.0 0.00 0.00 0.00 22 1014.0
20260905144403 31 16 6.4 0.0 0.00 0.00 0.00 22 1014.0
20260905144203 31 16 6.4 0.0 0.00 0.00 0.00 22 1014.0
20260905144002 31 16 6.4 0.0 0.00 0.00 0.00 22 1015.0
20260905143802 31 16 6.4 0.0 0.00 0.00 0.00 22 1015.0
20260905143602 31 16 6.4 0.0 0.00 0.00 0.00 22 1015.0
20260905143402 31 16 6.4 0.0 0.00 0.00 0.00 22 1015.0
20260905143202 31 16 6.4 0.0 0.00 0.00 0.00 22 1015.0
20260905143003 31 16 6.4 0.0 0.00 0.00 0.00 22 1015.0
20260905142802 32 16 6.4 0.0 0.00 0.00 0.00 22 1015.0
20260905142602 32 16 6.4 0.0 0.00 0.00 0.00 22 1015.0
20260905142402 32 16 6.4 0.0 0.00 0.00 0.00 22 1015.0
20260905142202 31 16 6.4 0.0 0.00 0.00 0.00 23 1015.0
20260905142002 31 16 6.4 0.0 0.00 0.00 0.00 23 1015.0
20260905141802 32 16 6.4 0.0 0.00 0.00 0.00 23 1015.0
20260905141603 32 16 6.4 0.0 0.00 0.00 0.00 23 1015.0
20260905141403 32 16 6.4 0.0 0.00 0.00 0.00 23 1015.0
20260905141204 32 16 6.4 0.0 0.00 0.00 0.00 23 1015.0
20260905141002 31 16 6.4 0.0 0.00 0.00 0.00 21 1014.0
20260905140802 31 16 6.4 0.0 0.00 0.00 0.00 21 1014.0
20260905140602 31 16 6.4 0.0 0.00 0.00 0.00 21 1014.0
20260905140402 31 16 6.4 0.0 0.00 0.00 0.00 21 1014.0
20260905140202 31 16 6.4 0.0 0.00 0.00 0.00 21 1014.0
20260905140002 32 16 6.4 0.0 0.00 0.00 0.00 21 1014.0
20260905135803 32 16 6.4 0.0 0.00 0.00 0.00 21 1014.0
20260905135602 32 16 6.4 0.0 0.00 0.00 0.00 21 1014.0
20260905135402 32 16 6.4 0.0 0.00 0.00 0.00 21 1014.0
20260905135202 32 16 6.4 0.0 0.00 0.00 0.00 21 1014.0
20260905135002 32 16 6.4 0.0 0.00 0.00 0.00 21 1014.0
20260905134802 31 27 6.4 0.0 0.00 0.00 0.00 22 1014.0
20260905134602 31 27 6.4 0.0 0.00 0.00 0.00 22 1014.0
20260905134402 31 27 6.4 0.0 0.00 0.00 0.00 22 1014.0
20260905134203 31 27 6.4 0.0 0.00 0.00 0.00 22 1014.0
20260905134003 31 27 6.4 0.0 0.00 0.00 0.00 22 1014.0
20260905133803 31 27 6.4 0.0 0.00 0.00 0.00 22 1014.0
20260905133603 32 27 6.4 0.0 0.00 0.00 0.00 22 1015.0
20260905133402 31 27 6.4 0.0 0.00 0.00 0.00 22 1014.0
20260905133202 32 27 6.4 0.0 0.00 0.00 0.00 22 1015.0
20260905133002 31 27 6.4 0.0 0.00 0.00 0.00 24 1015.0
20260905132802 32 27 6.4 0.0 0.00 0.00 0.00 22 1015.0
20260905132603 31 27 6.4 0.0 0.00 0.00 0.00 24 1015.0
20260905132402 31 27 6.4 0.0 0.00 0.00 0.00 24 1015.0
20260905132202 31 27 6.4 0.0 0.00 0.00 0.00 24 1015.0
20260905132002 31 27 6.4 0.0 0.00 0.00 0.00 22 1015.0
20260905131802 32 27 6.4 0.0 0.00 0.00 0.00 22 1015.0
20260905131602 32 27 6.4 0.0 0.00 0.00 0.00 22 1015.0
20260905131402 32 27 6.4 0.0 0.00 0.00 0.00 22 1015.0
20260905131203 32 27 6.4 0.0 0.00 0.00 0.00 22 1015.0
20260905131002 32 27 6.4 0.0 0.00 0.00 0.00 22 1015.0
20260905130802 32 27 6.4 0.0 0.00 0.00 0.00 22 1015.0
20260905130602 31 25 3.2 0.0 0.00 0.00 0.00 22 1015.0
20260905130402 31 25 3.2 0.0 0.00 0.00 0.00 22 1015.0
20260905130202 31 25 3.2 0.0 0.00 0.00 0.00 22 1015.0
20260905130002 31 25 3.2 0.0 0.00 0.00 0.00 22 1015.0
20260905125802 31 25 3.2 0.0 0.00 0.00 0.00 22 1015.0
20260905125603 31 25 3.2 0.0 0.00 0.00 0.00 22 1015.0
20260905125403 32 25 4.8 0.0 0.00 0.00 0.00 22 1015.0
20260905125202 32 25 4.8 0.0 0.00 0.00 0.00 22 1015.0
20260905125002 31 25 3.2 0.0 0.00 0.00 0.00 20 1015.0
20260905124802 31 25 3.2 0.0 0.00 0.00 0.00 20 1015.0
20260905124602 31 25 3.2 0.0 0.00 0.00 0.00 20 1015.0
20260905124402 31 25 3.2 0.0 0.00 0.00 0.00 20 1015.0
20260905124202 31 25 3.2 0.0 0.00 0.00 0.00 20 1015.0
20260905124003 32 25 4.8 0.0 0.00 0.00 0.00 20 1015.0
20260905123802 32 25 4.8 0.0 0.00 0.00 0.00 20 1015.0
20260905123603 32 25 4.8 0.0 0.00 0.00 0.00 20 1015.0
20260905123402 32 25 4.8 0.0 0.00 0.00 0.00 20 1015.0
20260905123202 32 25 4.8 0.0 0.00 0.00 0.00 20 1015.0
20260905123002 32 25 4.8 0.0 0.00 0.00 0.00 20 1015.0
20260905122802 31 41 1.6 0.0 0.00 0.00 0.00 21 1015.0
20260905122602 31 41 1.6 0.0 0.00 0.00 0.00 21 1015.0
20260905122403 31 41 1.6 0.0 0.00 0.00 0.00 21 1015.0
20260905122203 31 41 1.6 0.0 0.00 0.00 0.00 21 1015.0
20260905122002 31 41 1.6 0.0 0.00 0.00 0.00 21 1015.0
20260905121802 31 41 1.6 0.0 0.00 0.00 0.00 21 1015.0
20260905121602 31 41 1.6 0.0 0.00 0.00 0.00 21 1015.0
20260905121402 31 41 1.6 0.0 0.00 0.00 0.00 21 1015.0
20260905121202 31 41 1.6 0.0 0.00 0.00 0.00 21 1015.0
20260905121002 32 41 3.2 0.0 0.00 0.00 0.00 21 1015.0
20260905120802 32 41 3.2 0.0 0.00 0.00 0.00 21 1015.0
20260905120603 32 41 3.2 0.0 0.00 0.00 0.00 21 1015.0
20260905120403 32 41 3.2 0.0 0.00 0.00 0.00 21 1015.0
20260905120203 32 41 3.2 0.0 0.00 0.00 0.00 21 1015.0
20260905120002 32 41 3.2 0.0 0.00 0.00 0.00 21 1015.0
20260905115802 31 41 1.6 0.0 0.00 0.00 0.00 22 1015.0
20260905115604 31 41 1.6 0.0 0.00 0.00 0.00 22 1015.0
20260905115402 31 41 1.6 0.0 0.00 0.00 0.00 22 1015.0
20260905115202 31 41 1.6 0.0 0.00 0.00 0.00 22 1015.0
20260905115003 32 41 3.2 0.0 0.00 0.00 0.00 22 1015.0
20260905114803 32 41 3.2 0.0 0.00 0.00 0.00 22 1015.0
20260905114603 32 41 3.2 0.0 0.00 0.00 0.00 22 1015.0
20260905114402 32 41 3.2 0.0 0.00 0.00 0.00 22 1015.0
20260905114202 31 49 1.6 0.0 0.00 0.00 0.00 24 1015.0
20260905114002 31 49 1.6 0.0 0.00 0.00 0.00 24 1015.0
20260905113802 31 49 1.6 0.0 0.00 0.00 0.00 24 1015.0
20260905113602 31 49 1.6 0.0 0.00 0.00 0.00 24 1015.0
20260905113403 31 49 1.6 0.0 0.00 0.00 0.00 24 1015.0
20260905113202 31 49 1.6 0.0 0.00 0.00 0.00 24 1015.0
20260905113002 31 49 3.2 0.0 0.00 0.00 0.00 24 1016.0
20260905112802 31 49 3.2 0.0 0.00 0.00 0.00 24 1016.0
20260905112602 31 49 3.2 0.0 0.00 0.00 0.00 24 1016.0
20260905112402 30 49 1.6 0.0 0.00 0.00 0.00 22 1016.0
20260905112202 30 49 1.6 0.0 0.00 0.00 0.00 22 1016.0
20260905112003 30 49 1.6 0.0 0.00 0.00 0.00 22 1016.0
20260905111802 30 49 1.6 0.0 0.00 0.00 0.00 22 1016.0
20260905111603 31 49 3.2 0.0 0.00 0.00 0.00 24 1016.0
20260905111402 30 49 1.6 0.0 0.00 0.00 0.00 22 1016.0
20260905111203 31 49 1.6 0.0 0.00 0.00 0.00 22 1016.0
20260905111002 31 49 1.6 0.0 0.00 0.00 0.00 22 1016.0
20260905110802 31 49 1.6 0.0 0.00 0.00 0.00 22 1016.0
20260905110602 31 49 1.6 0.0 0.00 0.00 0.00 22 1016.0
20260905110403 31 49 1.6 0.0 0.00 0.00 0.00 22 1016.0
20260905110203 31 49 1.6 0.0 0.00 0.00 0.00 22 1016.0
20260905110002 31 49 3.2 0.0 0.00 0.00 0.00 22 1016.0
20260905105802 31 49 3.2 0.0 0.00 0.00 0.00 22 1016.0
20260905105602 31 49 3.2 0.0 0.00 0.00 0.00 22 1016.0
20260905105402 31 49 3.2 0.0 0.00 0.00 0.00 22 1016.0
20260905105202 31 49 3.2 0.0 0.00 0.00 0.00 22 1016.0
20260905105003 30 49 1.6 0.0 0.00 0.00 0.00 23 1016.0
20260905104803 30 49 1.6 0.0 0.00 0.00 0.00 23 1016.0
20260905104603 30 49 1.6 0.0 0.00 0.00 0.00 23 1016.0
20260905104402 30 49 1.6 0.0 0.00 0.00 0.00 23 1016.0
20260905104202 31 49 3.2 0.0 0.00 0.00 0.00 23 1016.0
20260905104002 31 49 3.2 0.0 0.00 0.00 0.00 23 1016.0
20260905103802 31 49 3.2 0.0 0.00 0.00 0.00 23 1016.0
20260905103602 29 46 1.6 0.0 0.00 0.00 0.00 26 1017.0
20260905103403 29 46 1.6 0.0 0.00 0.00 0.00 26 1017.0
20260905103203 31 49 3.2 0.0 0.00 0.00 0.00 23 1016.0
20260905103002 29 46 1.6 0.0 0.00 0.00 0.00 26 1017.0
20260905102802 29 46 1.6 0.0 0.00 0.00 0.00 26 1017.0
20260905102602 30 46 3.2 0.0 0.00 0.00 0.00 26 1017.0
20260905102402 30 46 3.2 0.0 0.00 0.00 0.00 26 1017.0
20260905102202 30 46 3.2 0.0 0.00 0.00 0.00 26 1017.0
20260905102003 30 46 3.2 0.0 0.00 0.00 0.00 26 1017.0
20260905101803 30 46 3.2 0.0 0.00 0.00 0.00 26 1017.0
20260905101603 30 46 3.2 0.0 0.00 0.00 0.00 26 1017.0
20260905101402 29 46 1.6 0.0 0.00 0.00 0.00 24 1017.0
20260905101202 29 46 1.6 0.0 0.00 0.00 0.00 24 1017.0
20260905101002 29 46 1.6 0.0 0.00 0.00 0.00 24 1017.0
20260905100802 29 46 1.6 0.0 0.00 0.00 0.00 24 1017.0
20260905100602 29 46 1.6 0.0 0.00 0.00 0.00 24 1017.0
20260905100403 29 46 1.6 0.0 0.00 0.00 0.00 24 1017.0
20260905100203 30 46 3.2 0.0 0.00 0.00 0.00 24 1017.0
20260905100002 30 46 3.2 0.0 0.00 0.00 0.00 24 1017.0
20260905095802 30 46 3.2 0.0 0.00 0.00 0.00 24 1017.0
20260905095602 30 46 3.2 0.0 0.00 0.00 0.00 24 1017.0
20260905095402 29 46 1.6 0.0 0.00 0.00 0.00 25 1017.0
20260905095202 29 46 1.6 0.0 0.00 0.00 0.00 25 1017.0
20260905095003 29 46 1.6 0.0 0.00 0.00 0.00 25 1017.0
20260905094803 29 46 1.6 0.0 0.00 0.00 0.00 25 1017.0
20260905094603 30 46 3.2 0.0 0.00 0.00 0.00 25 1017.0
20260905094402 30 46 3.2 0.0 0.00 0.00 0.00 25 1017.0
20260905094202 30 46 3.2 0.0 0.00 0.00 0.00 25 1017.0
20260905094002 30 46 3.2 0.0 0.00 0.00 0.00 25 1017.0
20260905093802 30 46 3.2 0.0 0.00 0.00 0.00 25 1017.0
20260905093602 28 12 1.6 0.0 0.00 0.00 0.00 27 1017.0
20260905093402 29 12 3.2 0.0 0.00 0.00 0.00 28 1017.0
20260905093203 29 12 3.2 0.0 0.00 0.00 0.00 28 1017.0
20260905093003 29 12 3.2 0.0 0.00 0.00 0.00 28 1017.0
20260905092802 28 12 1.6 0.0 0.00 0.00 0.00 27 1017.0
20260905092602 28 12 1.6 0.0 0.00 0.00 0.00 27 1017.0
20260905092402 28 12 1.6 0.0 0.00 0.00 0.00 27 1017.0
20260905092202 28 12 1.6 0.0 0.00 0.00 0.00 27 1017.0
20260905092002 28 12 1.6 0.0 0.00 0.00 0.00 27 1017.0
20260905091803 28 12 1.6 0.0 0.00 0.00 0.00 27 1017.0
20260905091603 28 12 1.6 0.0 0.00 0.00 0.00 27 1017.0
20260905091402 28 12 1.6 0.0 0.00 0.00 0.00 27 1017.0
20260905091202 29 12 3.2 0.0 0.00 0.00 0.00 27 1017.0
20260905091002 29 12 3.2 0.0 0.00 0.00 0.00 27 1017.0
20260905090802 29 12 3.2 0.0 0.00 0.00 0.00 27 1017.0
20260905090602 29 12 3.2 0.0 0.00 0.00 0.00 27 1017.0
20260905090402 29 12 3.2 0.0 0.00 0.00 0.00 27 1017.0
20260905090202 28 12 1.6 0.0 0.00 0.00 0.00 28 1017.0
20260905090003 28 12 1.6 0.0 0.00 0.00 0.00 28 1017.0
20260905085802 28 12 1.6 0.0 0.00 0.00 0.00 28 1017.0
20260905085603 28 12 1.6 0.0 0.00 0.00 0.00 28 1017.0
20260905085403 28 12 1.6 0.0 0.00 0.00 0.00 28 1017.0
20260905085202 28 12 1.6 0.0 0.00 0.00 0.00 28 1017.0
20260905085002 28 12 1.6 0.0 0.00 0.00 0.00 28 1017.0
20260905084802 28 12 1.6 0.0 0.00 0.00 0.00 28 1017.0
20260905084602 29 12 3.2 0.0 0.00 0.00 0.00 28 1017.0
20260905084403 29 12 3.2 0.0 0.00 0.00 0.00 28 1017.0
20260905084202 29 12 3.2 0.0 0.00 0.00 0.00 28 1017.0
20260905084002 29 12 3.2 0.0 0.00 0.00 0.00 28 1017.0
20260905083802 29 12 3.2 0.0 0.00 0.00 0.00 28 1017.0
20260905083602 29 12 3.2 0.0 0.00 0.00 0.00 28 1017.0
20260905083402 27 330 3.2 0.0 0.00 0.00 0.00 33 1018.0
20260905083202 27 330 3.2 0.0 0.00 0.00 0.00 33 1018.0
20260905083002 27 330 3.2 0.0 0.00 0.00 0.00 33 1018.0
20260905082803 27 330 3.2 0.0 0.00 0.00 0.00 33 1018.0
20260905082604 27 330 3.2 0.0 0.00 0.00 0.00 33 1018.0
20260905082402 27 330 3.2 0.0 0.00 0.00 0.00 33 1018.0
20260905082202 27 330 3.2 0.0 0.00 0.00 0.00 33 1018.0
20260905082002 28 330 4.8 0.0 0.00 0.00 0.00 33 1018.0
20260905081802 28 330 4.8 0.0 0.00 0.00 0.00 33 1018.0
20260905081602 28 330 4.8 0.0 0.00 0.00 0.00 33 1018.0
20260905081403 26 330 1.6 0.0 0.00 0.00 0.00 32 1018.0
20260905081203 26 330 1.6 0.0 0.00 0.00 0.00 32 1018.0
20260905081003 28 330 4.8 0.0 0.00 0.00 0.00 33 1018.0
20260905080802 28 330 4.8 0.0 0.00 0.00 0.00 33 1018.0
20260905080602 28 330 4.8 0.0 0.00 0.00 0.00 33 1018.0
20260905080402 26 330 1.6 0.0 0.00 0.00 0.00 32 1018.0
20260905080202 27 330 3.2 0.0 0.00 0.00 0.00 32 1018.0
20260905080002 27 330 3.2 0.0 0.00 0.00 0.00 32 1018.0
20260905075802 27 330 3.2 0.0 0.00 0.00 0.00 32 1018.0
20260905075603 27 330 4.8 0.0 0.00 0.00 0.00 32 1018.0
20260905075403 27 330 4.8 0.0 0.00 0.00 0.00 32 1018.0
20260905075202 26 330 1.6 0.0 0.00 0.00 0.00 32 1018.0
20260905075002 26 330 1.6 0.0 0.00 0.00 0.00 32 1018.0
20260905074802 26 330 1.6 0.0 0.00 0.00 0.00 32 1018.0
20260905074602 27 330 3.2 0.0 0.00 0.00 0.00 32 1018.0
20260905074402 27 330 3.2 0.0 0.00 0.00 0.00 32 1018.0
20260905074202 27 330 3.2 0.0 0.00 0.00 0.00 32 1018.0
20260905074003 27 330 4.8 0.0 0.00 0.00 0.00 32 1018.0
20260905073802 27 330 4.8 0.0 0.00 0.00 0.00 32 1018.0
20260905073603 25 320 8.0 0.0 0.00 0.00 0.00 39 1018.0
20260905073402 25 320 8.0 0.0 0.00 0.00 0.00 39 1018.0
20260905073202 25 320 8.0 0.0 0.00 0.00 0.00 39 1018.0
20260905073002 25 320 8.0 0.0 0.00 0.00 0.00 39 1018.0
20260905072802 25 320 8.0 0.0 0.00 0.00 0.00 39 1018.0
20260905072603 25 320 8.0 0.0 0.00 0.00 0.00 39 1018.0
20260905072403 24 320 8.0 0.0 0.00 0.00 0.00 38 1018.0
20260905072203 24 320 8.0 0.0 0.00 0.00 0.00 38 1018.0
20260905072002 24 320 8.0 0.0 0.00 0.00 0.00 38 1018.0
20260905071802 24 320 8.0 0.0 0.00 0.00 0.00 38 1018.0
20260905071602 24 320 8.0 0.0 0.00 0.00 0.00 38 1018.0
20260905071402 24 320 8.0 0.0 0.00 0.00 0.00 38 1018.0
20260905071202 23 320 8.0 0.0 0.00 0.00 0.00 37 1018.0
20260905071002 23 320 8.0 0.0 0.00 0.00 0.00 37 1018.0
20260905070803 23 320 8.0 0.0 0.00 0.00 0.00 37 1018.0
20260905070603 23 320 8.0 0.0 0.00 0.00 0.00 37 1018.0
20260905070402 23 320 8.0 0.0 0.00 0.00 0.00 37 1018.0
20260905070202 23 320 8.0 0.0 0.00 0.00 0.00 37 1018.0
20260905070002 23 320 8.0 0.0 0.00 0.00 0.00 37 1018.0
20260905065802 23 320 8.0 0.0 0.00 0.00 0.00 37 1018.0
20260905065602 23 320 8.0 0.0 0.00 0.00 0.00 37 1018.0
20260905065402 23 320 8.0 0.0 0.00 0.00 0.00 37 1018.0